千帆星座-68 (QIANFAN-68)

导读

QIANFAN-68 是中国“北斗”卫星导航系统的一部分,属于北斗三号系统的地球静止轨道卫星。该卫星由中国自主研发,主要用于提供高精度定位、导航和授时服务,增强区域和全球服务能力。QIANFAN-68 的成功发射和运行,提升了北斗系统在全球范围内的覆盖与稳定性,对交通、通信、气象、农业等多个领域具有重要意义。

Basic Information
目录编号:
62798
目录名称:
QIANFAN-68
国际标识:
2025-016P
轨道中心:
EARTH
卫星名称:
千帆星座-68
卫星全名:
千帆星座-68 (QIANFAN-68)
卫星状态:
在轨 (已飞行596 天)
发射日期:
2025-01-23 UTC
国别 :
中国 (CN)
星等 :
--
Orbit Information
数据来源 国际轨道数据 AOE轨道数据
星历时间 2026-09-10T23:22:05+0800
12小时前
查看轨道信息
2026-09-10T21:00:00+0800
14小时前
查看轨道信息
半长轴 7446.641km 7446.642km
偏心率 0.0013207 0.0013117
轨道倾角 88.966° 88.966°
近地点辐角 279.603° 280.041°
升交点赤经 74.865° 74.875°
平近点角 80.363° 320.300°
近地点 1058.669km 1058.737km
远地点 1078.339km 1078.273km
周期 106.586分钟 106.586分钟
每日圈数 13.510213 13.510211
Detailed Information
卫星平台:
68
覆盖范围:
全球
运营商:
上海垣信卫星科技有限公司
运营商所在国:
中国
使用方式:
暂无
Satellite Introduction
千帆星座,也被称为“G60星链”计划,是中国版“星链”的重要组成部分,旨在打造一个由1.4万多颗低轨宽频多媒体卫星构成的庞大星座。千帆星座计划由上海垣信卫星科技有限公司负责实施,于2023年启动建设。该项目是我国第二个低轨卫星大星座,旨在通过构建庞大的卫星网络,为全球用户提供高质量的通信和宽带互联网服务。
2D Orbit Map
3D Orbit Map
Orbit Altitude Analysis Chart
Orbit Inclination Analysis Chart
Orbit Comprehensive Analysis Chart
View Comprehensive Chart
Miss Distance Evolution Trend with All Objects
Collision Probability Evolution Trend with All Objects